Regional Weather Roundup
Issued by NWS Boston, MA

Current Version | Previous Version | Text Only | Print | Product List | Glossary On
Versions: 1 2 3 4 5 6 7 8 9 10 11 12 13 14 15 16 17 18 19 20 21 22 23 24 25 26 27 28 29 30 31 32 33 34 35 36 37 38 39 40 41 42 43 44 45 46 47 48 49 50
000
ASUS41 KBOX 282010
RWRBOX

REGIONAL WEATHER ROUNDUP
NATIONAL WEATHER SERVICE TAUNTON MA
400 PM EDT THU JUL 28 2016

NOTE:  "FAIR" INDICATES FEW OR NO CLOUDS BELOW 12,000 FEET WITH NO
SIGNIFICANT WEATHER AND/OR OBSTRUCTIONS TO VISIBILITY.

MAZALL-282100-
EASTERN MASSACHUSETTS

CITY           SKY/WX    TMP DP  RH WIND       PRES   REMARKS
BOSTON         CLOUDY    85  64  49 E7        29.82F
BEVERLY        CLOUDY    90  63  40 SE10      29.81F HX  91
LAWRENCE       CLOUDY    95  60  31 SW7       29.82F HX  95
BEDFORD        PTSUNNY   91  58  32 S12       29.81F HX  90
BLUE HILL        N/A     90  60  36 S7        29.85F
NORWOOD        PTSUNNY   90  64  42 S9        29.82F HX  91
MARSHFIELD     PTSUNNY   91  64  40 S10G17    29.82F HX  93
PLYMOUTH       MOSUNNY   88  64  44 S12G23    29.86S
TAUNTON        SUNNY     90  63  40 SW10G18   29.84F HX  91
NEW BEDFORD    SUNNY     87  68  52 SW13      29.86F HX  90
$$

MAZALL-282100-
CAPE COD AND THE ISLANDS

CITY           SKY/WX    TMP DP  RH WIND       PRES   REMARKS
FALMOUTH       SUNNY     81  72  74 SW14      29.87F
HYANNIS        SUNNY     82  72  71 S9G20     29.86F
CHATHAM        PTSUNNY   81  74  79 SW8       29.89F
PROVINCETOWN   PTSUNNY   82  73  74 S13       29.86F
NANTUCKET      SUNNY     76  71  85 S10       29.89F
MARTHAS VNYRD  SUNNY     81  72  74 S13       29.88F
$$

MAZALL-282100-
CENTRAL AND WESTERN MASSACHUSETTS

CITY           SKY/WX    TMP DP  RH WIND       PRES   REMARKS
WORCESTER      CLOUDY    85  59  41 W6        29.89F
FITCHBURG      CLOUDY    94  60  32 SW8       29.84F HX  94
ORANGE         PTSUNNY   91  61  36 SW8       29.85F HX  91
SPRINGFIELD    NOT AVBL
WESTFIELD      CLOUDY    93  59  31 W9        29.83F HX  92
NORTH ADAMS    MOSUNNY   87  61  41 VRB5      29.86S
PITTSFIELD     CLOUDY    86  60  41 SW6       29.89S
$$

RIZALL-282100-
RHODE ISLAND

CITY           SKY/WX    TMP DP  RH WIND       PRES   REMARKS
PROVIDENCE     PTSUNNY   84  71  65 S13       29.86S
NEWPORT        SUNNY     82  73  74 S12       29.87F
BLOCK ISLAND   MOSUNNY   79  74  84 S13       29.88F
SMITHFIELD     MOSUNNY   90  70  51 SE9G17    29.86S HX  95
WESTERLY       MOSUNNY   83  71  67 S12       29.88F
$$

CTZALL-282100-
CONNECTICUT

CITY           SKY/WX    TMP DP  RH WIND       PRES   REMARKS
BRADLEY INTL   CLOUDY    96  61  31 N6        29.83F HX  96
HARTFORD       PTSUNNY   94  63  35 S8        29.81F HX  95
BRIDGEPORT     SUNNY     87  65  47 S9        29.85S
DANBURY        SUNNY     90  62  39 S7        29.86F HX  90
GROTON         SUNNY     81  73  76 S13       29.85F
NEW HAVEN        N/A     88  63  43 S12       29.86S
CHESTER        FAIR      90  61  37 S10G17    29.87S
MERIDEN        PTSUNNY   94  62  34 S8        29.83F HX  94
WILLIMANTIC    MOSUNNY   92  63  38 VRB3      29.85F HX  93
OXFORD         MOSUNNY   90  63  40 VRB6      29.90F HX  90
$$

MEZ002-015-021-024-NHZ003-005-008-011-012-014-VTZ005-008-282100-
NORTHERN NEW ENGLAND

CITY           SKY/WX    TMP DP  RH WIND       PRES   REMARKS
PORTLAND ME    CLOUDY    82  63  52 S9        29.81F
BANGOR ME      CLOUDY    81  68  64 S14       29.82R THUNDER
CONCORD NH     MOSUNNY   93  62  35 W8        29.82F HX  93
MANCHESTER NH  CLOUDY    93  59  31 VRB3      29.80F HX  92
NASHUA NH      CLOUDY    93  63  36 S6        29.81F HX  94
PORTSMOUTH NH  NOT AVBL
JAFFREY NH     CLOUDY    88  58  36 VRB5      29.88F
KEENE NH       CLOUDY    90  63  40 NW10      29.84F HX  91
BURLINGTON VT  CLOUDY    74  66  76 SE3       29.90R
MT. WASHINGTON LGT RAIN  57  57 100 W25         N/A  VSB 0
$$

NYZ052-076-282100-
EASTERN NEW YORK

CITY           SKY/WX    TMP DP  RH WIND       PRES   REMARKS
ALBANY         CLOUDY    90  64  42 W9        29.84S HX  91
NEW YORK CITY  PTSUNNY   88  70  55 S21       29.85R HX  93
$$

ANZALL-282100-
MARINE OBSERVATIONS

STATION/POSITION TIME  TEMP    WIND        PRES    VSBY  WAVE
                       AIR SEA DIR/SP/G                  HT/PER
                 (UTC) (F)     (DEG/KT/KT) (MB)    (MI)  (FT/S)
BOSTON BUOY      1950   77 73  140/ 12/ 12 1009.7F         1/ 6
BUZZARDS BAY     1900   72     210/ 11/ 12 1012.5F
NANTUCKET SOUND  1950   75 76  200/ 10/ 12 1011.7F         1
MASS BAY-STELLWA 1904   75 71  150/ 10/ 12 1010.2F  1 7/8  1
ISLE OF SHOALS   1900   76     150/ 20/ 20 1009.7F
S OF BLOCK IS    1925      76                N/A           1/ 7
$$

......................KEY.........................
  SKY/WX - SKY CONDITION/PRESENT WEATHER
  TMP    - TEMPERATURE IN FAHRENHEIT
  DWPT   - DEWPOINT IN FAHRENHEIT
  RH     - RELATIVE HUMIDITY IN PERCENT
  WIND   - DIRECTION AND SPEED IN MPH
  PRES   - MEAN SEA LEVEL PRESSURE IN INCHES OF HG
  WCI    - WIND CHILL INDEX
  VSB    - VISIBILITY IN MILES
  HX     - HEAT INDEX
  TC     - TEMPERATURE IN CELSIUS
  VRB    - VARIABLE WIND DIRECTION
  N/A    - NOT AVAILABLE



USA.gov is the U.S. government's official web portal to all federal, state and local government web resources and services.